Weather in Rybinsk Reservoir

Russia / Yaroslavl Oblast     58°23′24″N   38°25′48″E
temp.,
°C
wind,
m/s
gust,
m/s
humid.,
%
clouds,
%
prec.,
mm/h
press.,
hPa
HPBL,
m
18 may, tue
tue1800:00+11e6610044 2.7 101321
03:00+10ese7999100 2.7 101246
06:00+10ese7810082 0.0 101141
09:00+10ese6610094 0.0 101228
12:00+13se77769 0.0 101228
15:00+14ese887098 0.0 101131
18:00+14ese887426 0.0 101130
21:00+13ese910845 0.0 101045
19 may, wed
wed1900:00+13ese888447 0.0 101041
03:00+11ese89905 0.0 101044
06:00+11ese810945 0.0 101057
09:00+12ese89851 0.0 101045
12:00+13se88755 0.0 100934
15:00+13sse667821 0.0 100917
18:00+12se449492 6.0 100910
21:00+13se888740 7.6 100937
20 may, thu
thu2000:00+12se8996100 1.9 100944
03:00+11se81199100 4.6 100953
06:00+10e789895 0.6 100839
09:00+11ese66925 1.6 100825
12:00+13se77810 0.0 100635
15:00+13sse10158777 2.3 100679
18:00+12se779111 1.9 100639
21:00+11se778916 2.0 100537
21 may, fri
fri2100:00+10se710895 0.1 100557
03:00+9se7109598 0.1 100465
06:00+9s6893100 0.0 100564
09:00+9s5587100 0.0 100638
12:00+9sw5594100 0.1 100741
15:00+8w6895100 0.4 100966
18:00+9ssw4488100 0.0 101015
21:00+10sw557571 0.0 101219
22 may, sat
sat2200:00+9wsw678075 0.0 101346
03:00+8sw44826 0.0 101535
06:00+7sw33865 0.0 101622
09:00+8sw33835 0.0 101813
12:00+10ese22700 0.0 101710
15:00+12ese33645 0.0 101713
18:00+12ese22625 0.0 101610
21:00+11se33680 0.0 101610